(501906) = 2008 MR2 = 2014 WO467

Discovered at Siding Spring on 2004-08-19 by Siding Spring Survey.

Orbit

Orbit type: Main Belt

Note: WebGL enabled browser required.

epoch2024-03-31.0
epoch JD2460400.5
perihelion date2023-04-01.14981
perihelion JD2460035.64981
argument of perihelion (°)282.43089
ascending node (°)133.79490
inclination (°)9.56188
eccentricity0.1754360
perihelion distance (AU)2.2568734
Tisserand w.r.t. Jupiter3.3
ΔV w.r.t. Earth (km/sec)9.9
semimajor axis (AU)2.7370508
mean anomaly (°)79.41347
mean daily motion (°/day)0.21766050
aphelion distance (AU)3.217
period (years)4.53
P-vector [x]0.54612824
P-vector [y]0.81855479
P-vector [z]0.17807866
Q-vector [x]-0.82907601
Q-vector [y]0.49772346
Q-vector [z]0.25476329
absolute magnitude16.4
phase slope0.15
uncertainty0
referenceMPEC 2024-F28
observations used357
oppositions14
arc length (days)8989
first opposition used1999
last opposition used2024
residual rms (arc-secs)0.70
perturbers coarse indicatorM-v
perturbers precise indicator003Ek
first observation date used1999-08-08.0
last observation date used2024-03-18.0
computer nameMPCLINUX
JD of orbit computation2458011.206713
perihelion JD uncertainty (days)6.5705E-05
argument of perihelion uncertainty (°)2.0987E-05
ascending node uncertainty (°)1.7340E-05
inclination uncertainty (°)3.3578E-06
eccentricity uncertainty 2.6304E-08
perihelion distance uncertainty (AU)6.9105E-08
Minimum Orbit Intersection Distances (in AU)
for orbit epoch: 2460400.5, reference: E2024-F28
Mercury1.94893
Venus1.54534
Earth1.29228
Mars0.78729
Jupiter2.18665
Saturn6.57111
Uranus15.5031
Neptune27.3496

Observations

362 total observations over interval: 1999 08 08.31068 – 2024 03 18.126333
These data are available for download (format description).

Date (UT) J2000 RA J2000 Dec Magn Location Ref
1999 08 08.31068 21 17 52.05 -16 19 36.2 20.0 V 691 – Steward Observatory, Kitt Peak-Spacewatch MPS 815600
1999 08 08.33272 21 17 50.93 -16 19 47.3 19.5 V 691 – Steward Observatory, Kitt Peak-Spacewatch MPS 815600
1999 08 08.35507 21 17 49.73 -16 19 56.1 20.1 V 691 – Steward Observatory, Kitt Peak-Spacewatch MPS 815600
2004 08 19.70405 01 35 00.89 -00 57 30.5 19.8 R E12 – Siding Spring Survey MPS 815600
2004 08 19.72090 01 35 01.24 -00 57 35.9 20.0 R E12 – Siding Spring Survey MPS 815600
2004 08 19.73776 01 35 01.55 -00 57 40.8 20.4 R E12 – Siding Spring Survey MPS 815600
2004 08 19.75459 01 35 01.89 -00 57 45.0 20.0 R E12 – Siding Spring Survey MPS 815600
2004 09 21.34124 01 32 11.02 -04 51 28.0 19.2 R 699 – Lowell Observatory-LONEOS MPS 815600
2004 09 21.35746 01 32 10.45 -04 51 36.1   699 – Lowell Observatory-LONEOS MPS 815600
2004 09 21.37366 01 32 09.99 -04 51 44.3   699 – Lowell Observatory-LONEOS MPS 815600
2004 09 21.38988 01 32 09.32 -04 51 53.0   699 – Lowell Observatory-LONEOS MPS 815600
2004 12 03.08824 00 57 46.08 -07 59 09.5 19.5   644 – Palomar Mountain/NEAT MPS 815600
2004 12 03.10744 00 57 46.25 -07 59 02.7 19.5   644 – Palomar Mountain/NEAT MPS 815600
2004 12 03.12889 00 57 46.57 -07 58 55.1 19.5   644 – Palomar Mountain/NEAT MPS 815600
2006 02 01.43398 11 06 28.17 +10 40 51.4 20.4 V 691 – Steward Observatory, Kitt Peak-Spacewatch MPS 815600
2006 02 01.45127 11 06 27.62 +10 40 59.2 20.4 V 691 – Steward Observatory, Kitt Peak-Spacewatch MPS 815600
2006 02 01.46865 11 06 27.05 +10 41 07.0 20.5 V 691 – Steward Observatory, Kitt Peak-Spacewatch MPS 815600
2007 04 25.37890 16 01 00.30 -07 02 26.0 21.5 V 691 – Steward Observatory, Kitt Peak-Spacewatch MPS 815600
2007 04 25.39656 16 00 59.61 -07 02 21.5 20.9 V 691 – Steward Observatory, Kitt Peak-Spacewatch MPS 815600
2007 04 25.41423 16 00 58.89 -07 02 17.3 21.4 V 691 – Steward Observatory, Kitt Peak-Spacewatch MPS 815600
2007 05 10.33058 15 49 54.69 -06 09 19.8 21.4 V 691 – Steward Observatory, Kitt Peak-Spacewatch MPS 815600
2007 05 10.34823 15 49 53.77 -06 09 16.6 21.6 V 691 – Steward Observatory, Kitt Peak-Spacewatch MPS 815600
2007 05 10.36587 15 49 52.91 -06 09 13.2 21.4 V 691 – Steward Observatory, Kitt Peak-Spacewatch MPS 815600
2008 06 30.38173 21 16 07.45 -13 28 49.7   691 – Steward Observatory, Kitt Peak-Spacewatch MPS 252107
2008 06 30.40279 21 16 06.99 -13 28 54.8   691 – Steward Observatory, Kitt Peak-Spacewatch MPS 252107
2008 06 30.41786 21 16 06.67 -13 28 57.3   691 – Steward Observatory, Kitt Peak-Spacewatch MPS 252107
2008 07 01.36601 21 15 46.72 -13 32 41.8   691 – Steward Observatory, Kitt Peak-Spacewatch MPS 252107
2008 07 01.38363 21 15 46.34 -13 32 46.3   691 – Steward Observatory, Kitt Peak-Spacewatch MPS 252107
2008 07 01.39869 21 15 45.96 -13 32 49.8   691 – Steward Observatory, Kitt Peak-Spacewatch MPS 252107
2008 07 02.36762 21 15 24.29 -13 36 46.5   691 – Steward Observatory, Kitt Peak-Spacewatch MPS 252575
2008 07 02.38524 21 15 23.83 -13 36 50.9   691 – Steward Observatory, Kitt Peak-Spacewatch MPS 252575
2008 07 02.40288 21 15 23.40 -13 36 55.1   691 – Steward Observatory, Kitt Peak-Spacewatch MPS 252575
2008 07 30.29627 20 57 20.66 -16 16 18.5 19.6 V G96 – Mt. Lemmon Survey MPS 815600
2008 07 30.30077 20 57 20.44 -16 16 20.6 19.8 V G96 – Mt. Lemmon Survey MPS 815600
2008 07 30.30522 20 57 20.23 -16 16 22.4 19.9 V G96 – Mt. Lemmon Survey MPS 815600
2008 07 30.30977 20 57 20.01 -16 16 24.4 19.6 V G96 – Mt. Lemmon Survey MPS 815600
2011 04 02.42718 13 28 00.91 +04 18 34.7 20.6 V G96 – Mt. Lemmon Survey MPS 815600
2011 04 02.43341 13 28 00.66 +04 18 37.1 20.9 V G96 – Mt. Lemmon Survey MPS 815600
2011 04 02.43979 13 28 00.33 +04 18 40.0 21.1 V G96 – Mt. Lemmon Survey MPS 815600
2011 04 02.44603 13 28 00.01 +04 18 42.0 21.2 V G96 – Mt. Lemmon Survey MPS 815600
2011 04 12.25874 13 20 13.59 +05 18 27.9 21.1 V G96 – Mt. Lemmon Survey MPS 815600
2011 04 12.26699 13 20 13.27 +05 18 30.7 20.5 V G96 – Mt. Lemmon Survey MPS 815600
2011 04 12.27526 13 20 12.87 +05 18 32.6 20.3 V G96 – Mt. Lemmon Survey MPS 815600
2011 04 12.28354 13 20 12.40 +05 18 35.8 20.4 V G96 – Mt. Lemmon Survey MPS 815600
2011 05 03.19558 13 05 01.32 +06 41 09.4 21.2 V G96 – Mt. Lemmon Survey MPS 815600
2011 05 03.20192 13 05 01.06 +06 41 10.6 21.4 V G96 – Mt. Lemmon Survey MPS 815600
2011 05 03.20826 13 05 00.81 +06 41 11.2 21.2 V G96 – Mt. Lemmon Survey MPS 815600
2011 05 03.21462 13 05 00.56 +06 41 11.9 21.2 V G96 – Mt. Lemmon Survey MPS 815600
2013 08 28.34216 00 58 17.40 -04 58 59.6 20.7 G G45 – Space Surveillance Telescope, Atom Site MPS 1611131
2013 08 28.35817 00 58 17.28 -04 59 06.8 20.1 G G45 – Space Surveillance Telescope, Atom Site MPS 1611132
2013 08 28.40390 00 58 16.70 -04 59 27.5 20.2 G G45 – Space Surveillance Telescope, Atom Site MPS 1611132
2013 08 28.42342 00 58 16.50 -04 59 36.2 20.1 G G45 – Space Surveillance Telescope, Atom Site MPS 1611132
2013 09 05.34301 00 56 12.06 -06 04 01.8 20.1 V 703 – Catalina Sky Survey MPS 815600
2013 09 05.34822 00 56 11.97 -06 04 05.2 19.5 V 703 – Catalina Sky Survey MPS 815600
2013 09 05.35338 00 56 11.81 -06 04 07.0 18.9 V 703 – Catalina Sky Survey MPS 815600
2013 09 05.35865 00 56 11.70 -06 04 11.1 19.3 V 703 – Catalina Sky Survey MPS 815600
2013 09 25.30846 00 44 55.22 -09 02 29.8 18.7 V 703 – Catalina Sky Survey MPS 815600
2013 09 25.31690 00 44 54.73 -09 02 33.8 19.3 V 703 – Catalina Sky Survey MPS 815600
2013 09 25.32532 00 44 54.28 -09 02 37.5 19.3 V 703 – Catalina Sky Survey MPS 815600
2013 09 25.33376 00 44 54.03 -09 02 42.5 19.7 V 703 – Catalina Sky Survey MPS 815600
2013 09 30.41042 00 41 07.45 -09 45 18.6 19.0 V 703 – Catalina Sky Survey MPS 815600
2013 09 30.41602 00 41 07.15 -09 45 20.8 18.9 V 703 – Catalina Sky Survey MPS 815600
2013 09 30.42164 00 41 06.98 -09 45 24.2 19.5 V 703 – Catalina Sky Survey MPS 815600
2013 09 30.42724 00 41 06.70 -09 45 27.5 19.1 V 703 – Catalina Sky Survey MPS 815600
2013 10 03.16746 00 39 01.59 -10 06 59.7 19.8 G G45 – Space Surveillance Telescope, Atom Site MPS 1611132
2013 10 03.20591 00 38 59.82 -10 07 16.2 19.2 G G45 – Space Surveillance Telescope, Atom Site MPS 1611132
2013 10 03.22233 00 38 58.99 -10 07 24.4 20.2 G G45 – Space Surveillance Telescope, Atom Site MPS 1611132
2013 10 03.23960 00 38 58.17 -10 07 32.1 19.5 G G45 – Space Surveillance Telescope, Atom Site MPS 1611132
2013 10 09.23111 00 34 23.85 -10 49 50.4 19.4 R 926 – Tenagra II Observatory, Nogales MPS 815600
2013 10 09.25038 00 34 22.97 -10 49 57.4 20.0 R 926 – Tenagra II Observatory, Nogales MPS 815600
2013 10 09.26433 00 34 22.31 -10 50 02.7 19.6 R 926 – Tenagra II Observatory, Nogales MPS 815600
2013 10 09.33284 00 34 19.18 -10 50 29.1 19.6 V 703 – Catalina Sky Survey MPS 870054
2013 10 09.34527 00 34 18.43 -10 50 33.5 20.0 V 703 – Catalina Sky Survey MPS 870054
2013 10 09.35148 00 34 18.15 -10 50 36.9 19.7 V 703 – Catalina Sky Survey MPS 870054
2013 10 25.14252 00 23 54.77 -12 01 20.0 19.1 R 926 – Tenagra II Observatory, Nogales MPS 815600
2013 10 25.15919 00 23 54.19 -12 01 21.9 19.0 R 926 – Tenagra II Observatory, Nogales MPS 815600
2013 10 25.17339 00 23 53.73 -12 01 23.7 19.0 R 926 – Tenagra II Observatory, Nogales MPS 815600
2013 10 31.19511 00 21 07.12 -12 10 46.6 19.9 V 703 – Catalina Sky Survey MPS 815600
2013 10 31.20530 00 21 06.93 -12 10 46.4 19.6 V 703 – Catalina Sky Survey MPS 815600
2013 10 31.21552 00 21 06.61 -12 10 47.2 20.4 V 703 – Catalina Sky Survey MPS 815600
2013 10 31.22567 00 21 06.33 -12 10 48.3 19.6 V 703 – Catalina Sky Survey MPS 815600
2014 10 21.46663 09 41 05.16 +12 00 44.8 20.9 V 691 – Steward Observatory, Kitt Peak-Spacewatch MPS 815600
2014 10 21.46939 09 41 05.39 +12 00 43.6 21.2 V 691 – Steward Observatory, Kitt Peak-Spacewatch MPS 815600
2014 10 21.48035 09 41 06.32 +12 00 40.3 21.4 V 691 – Steward Observatory, Kitt Peak-Spacewatch MPS 815600
2014 10 21.48307 09 41 06.54 +12 00 39.5 21.3 V 691 – Steward Observatory, Kitt Peak-Spacewatch MPS 815600
2014 10 21.49402 09 41 07.47 +12 00 36.0 21.2 V 691 – Steward Observatory, Kitt Peak-Spacewatch MPS 815600
2014 10 21.49674 09 41 07.71 +12 00 35.2 21.4 V 691 – Steward Observatory, Kitt Peak-Spacewatch MPS 815600
